Location: San Antonio
(29.4240°N, 98.4930°W)
Time: 08:46:11
(UTC-05:00)

ACS3 Solar Sail - Pass Details

Date: 21 June 2024
Orbit: 992 x 1023 km, 97.4° (Epoch: 11 July)

Event Time Altitude Azimuth Distance (km) Brightness Sun altitude
Exits shadow 22:42:14 39° 105° (ESE) 1,457 5.3 -22.6°
Maximum altitude 22:43:33 44° 74° (ENE) 1,348 5.3 -22.8°
Drops below altitude 10° 22:49:23 10° 4° (N) 2,762 7.7 -23.7°
Sets 22:51:58 0° 358° (N) 3,712 8.6 -24.1°
